St. Joseph, KS

8:08 AM CST on December 08, 2019 (GMT -0600)
Rosecrans Memorial

Weather History for KSTJ - November, 2019

Change the Weather History Date:

Saturday, November 16, 2019

  Actual Average Record
Temperature  
Mean Temperature 42 °F 42 °F  
Max Temperature 59 °F 53 °F 77 °F (1963)
Min Temperature 25 °F 31 °F 6 °F (1959)
Degree Days  
Heating Degree Days 23 23  
Month to date heating degree days 432 315  
Since 1 July heating degree days 881 734  
Cooling Degree Days 0 0  
Month to date cooling degree days 0 0  
Year to date cooling degree days 1466 1220  
Moisture  
Dew Point 25 °F    
Average Humidity 56    
Maximum Humidity 82    
Minimum Humidity 29    
Precipitation  
Precipitation 0.00 in 0.04 in 2.95 in (1928)
Month to date precipitation 0.00 0.97  
Year to date precipitation 36.89 33.50  
Sea Level Pressure  
Sea Level Pressure 30.16 in    
Wind  
Wind Speed 7 mph (SSE)    
Max Wind Speed 17 mph    
Max Gust Speed 26 mph    
Visibility 10 miles    
Events      
T = Trace of Precipitation, MM = Missing Value Source: NWS Daily Summary

Daily Weather History Graph

Daily Weather History Graph

Search for Another Location

Airport or City:

Astronomy

Nov. 16, 2019 Rise Set
Actual Time 7:05 AM CST 5:03 PM CST
Civil Twilight 6:36 AM CST 5:32 PM CST
Nautical Twilight 6:03 AM CST 6:04 PM CST
Astronomical Twilight 5:31 AM CST 6:36 PM CST
Moon 8:37 PM CST (11/16) 10:59 AM CST (11/16)
Length of Visible Light 10h 55m
Length of Day
9h 58m
Waning Gibbous, 82% of the Moon is Illuminated
Nov 16
Waning Gibbous
Nov 19
Last Quarter
Nov 26
New
Dec 4
First Quarter
Dec 11
Full

Hourly Weather History & Observations

Time (CST) Temp. Windchill Dew Point Humidity Pressure Visibility Wind Dir Wind Speed Gust Speed Precip Events Conditions
12:53 AM 28.9 °F - 24.1 °F 82% 30.29 in 10.0 mi Calm Calm - N/A   Clear
1:53 AM 28.9 °F - 23.0 °F 78% 30.28 in 10.0 mi Calm Calm - N/A   Clear
2:53 AM 27.0 °F - 21.9 °F 81% 30.28 in 10.0 mi North - - N/A   Clear
3:53 AM 27.0 °F - 21.9 °F 81% 30.27 in 10.0 mi North - - N/A   Clear
4:53 AM 33.1 °F 30.0 °F 21.9 °F 64% 30.26 in 10.0 mi SSE 3.5 mph - N/A   Clear
5:53 AM 28.0 °F - 21.0 °F 75% 30.26 in 10.0 mi Calm Calm - N/A   Clear
6:53 AM 32.0 °F 27.5 °F 21.0 °F 64% 30.26 in 10.0 mi SE 4.6 mph - N/A   Clear
7:53 AM 34.0 °F 31.0 °F 21.9 °F 61% 30.26 in 10.0 mi SE 3.5 mph - N/A   Clear
8:53 AM 39.9 °F 33.4 °F 23.0 °F 51% 30.25 in 10.0 mi SSE 10.4 mph - N/A   Clear
9:53 AM 46.0 °F 41.0 °F 24.1 °F 42% 30.22 in 10.0 mi SSE 10.4 mph - N/A   Clear
10:53 AM 51.1 °F - 26.1 °F 38% 30.20 in 10.0 mi South 11.5 mph - N/A   Clear
11:53 AM 54.0 °F - 27.0 °F 35% 30.16 in 10.0 mi SSE 12.7 mph 25.3 mph N/A   Clear
1:53 PM 59.0 °F - 27.0 °F 29% 30.08 in 10.0 mi SE 12.7 mph 20.7 mph N/A   Clear
2:53 PM 59.0 °F - 27.0 °F 29% 30.06 in 10.0 mi SSE 12.7 mph - N/A   Clear
4:53 PM 52.0 °F - 27.0 °F 38% 30.04 in 10.0 mi SE 10.4 mph - N/A   Clear
5:53 PM 48.9 °F - 28.0 °F 44% 30.03 in 10.0 mi SE 8.1 mph - N/A   Clear
6:53 PM 48.0 °F - 28.9 °F 48% 30.04 in 10.0 mi SSE 8.1 mph - N/A   Clear
7:53 PM 48.0 °F - 28.0 °F 46% 30.06 in 10.0 mi SSE 5.8 mph - N/A   Clear
8:53 PM 45.0 °F 41.8 °F 28.9 °F 53% 30.06 in 10.0 mi SSE 5.8 mph - N/A   Clear
9:53 PM 43.0 °F 41.3 °F 28.0 °F 56% 30.07 in 10.0 mi SSE 3.5 mph - N/A   Clear
10:53 PM 44.1 °F 41.5 °F 28.9 °F 55% 30.05 in 10.0 mi SE 4.6 mph - N/A   Clear
11:53 PM 44.1 °F 40.8 °F 28.0 °F 53% 30.03 in 10.0 mi SSE 5.8 mph - N/A   Clear